Weather History for Jaffrey, NH

Change the Weather History Date:

Monday, January 27, 2014

  Actual Average Record
Temperature  
Mean Temperature 24 °F -  
Max Temperature 35 °F 27 °F 51 °F (2002)
Min Temperature 12 °F 9 °F -5 °F (2003)
Degree Days  
Heating Degree Days 40    
Moisture  
Dew Point 14 °F    
Average Humidity 66    
Maximum Humidity 82    
Minimum Humidity 35    
Precipitation  
Precipitation 0.00 in - - ()
Sea Level Pressure  
Sea Level Pressure 29.69 in    
Wind  
Wind Speed 10 mph (SW)    
Max Wind Speed 20 mph    
Max Gust Speed 31 mph    
Visibility 8 miles    
Events Snow    
Averages and records for this station are not official NWS values.
T = Trace of Precipitation, MM = Missing Value Source: NWS Daily Summary

Daily Weather History Graph

Daily Weather History Graph

Search for Another Location

Airport:

Trip Planner

Search our weather history database for the weather conditions in past years. The results will help you decide how hot, cold, wet, or windy it might be!

Date:

Astronomy

Jan. 27, 2014 Rise Set
Actual Time 7:07 AM EST 4:54 PM EST
Civil Twilight 6:37 AM EST 5:24 PM EST
Nautical Twilight 6:02 AM EST 5:59 PM EST
Astronomical Twilight 5:29 AM EST 6:32 PM EST
Moon 3:46 AM EST (1/27) 1:36 PM EST (1/27)
Length of Visible Light 10h 47m
Length of Day
9h 47m
Waning Crescent, 15% of the Moon is Illuminated
Jan 27
Waning Crescent
Jan 30
New
Feb 6
First Quarter
Feb 14
Full
Feb 22
Last Quarter

Hourly Weather History & Observations

Time (EST) Temp. Windchill Dew Point Humidity Pressure Visibility Wind Dir Wind Speed Gust Speed Precip Events Conditions
12:52 AM 17.1 °F 5.8 °F 8.1 °F 68% 29.80 in 10.0 mi South 9.2 mph - N/A   Overcast
1:52 AM 19.0 °F 11.1 °F 9.0 °F 65% 29.78 in 10.0 mi South 5.8 mph - N/A   Overcast
2:52 AM 19.9 °F 13.4 °F 12.0 °F 71% 29.75 in 10.0 mi South 4.6 mph - N/A   Overcast
3:52 AM 21.0 °F 16.2 °F 12.9 °F 71% 29.72 in 10.0 mi South 3.5 mph - N/A   Overcast
4:52 AM 19.0 °F - 12.9 °F 77% 29.69 in 10.0 mi Calm Calm - N/A   Scattered Clouds
5:52 AM 19.0 °F 13.9 °F 14.0 °F 81% 29.64 in 10.0 mi SSW 3.5 mph - N/A   Mostly Cloudy
6:52 AM 28.0 °F 20.8 °F 21.9 °F 78% 29.61 in 10.0 mi SSW 6.9 mph - N/A   Overcast
7:52 AM 32.0 °F 23.0 °F 23.0 °F 69% 29.58 in 10.0 mi SSW 11.5 mph 21.9 mph N/A   Overcast
8:52 AM 34.0 °F 24.6 °F 23.0 °F 64% 29.57 in 10.0 mi SSW 13.8 mph - N/A   Overcast
9:33 AM 34.0 °F 24.6 °F 26.1 °F 73% 29.52 in 2.5 mi South 13.8 mph 21.9 mph 0.00 in Snow Light Snow
9:39 AM 33.1 °F 22.2 °F 27.0 °F 78% 29.52 in 1.2 mi SSW 17.3 mph 25.3 mph 0.00 in Snow Light Snow
9:47 AM 33.1 °F 22.6 °F 28.0 °F 82% 29.58 in 0.8 mi SSW 16.1 mph 25.3 mph 0.00 in Snow Light Snow
9:53 AM 33.1 °F 23.0 °F 28.0 °F 82% 29.52 in 1.2 mi South 15.0 mph 26.5 mph 0.00 in Snow Light Snow
9:58 AM 33.1 °F 23.0 °F 28.0 °F 82% 29.51 in 1.8 mi South 15.0 mph 26.5 mph 0.00 in Snow Light Snow
10:10 AM 33.1 °F 23.4 °F 28.0 °F 82% 29.51 in 3.0 mi SSW 13.8 mph 25.3 mph 0.00 in Snow Light Snow
10:24 AM 33.1 °F 22.6 °F 28.0 °F 82% 29.50 in 1.8 mi South 16.1 mph 27.6 mph 0.00 in Snow Light Snow
10:37 AM 34.0 °F 23.8 °F 28.9 °F 82% 29.49 in 3.0 mi South 16.1 mph - 0.00 in Snow Light Snow
10:52 AM 34.0 °F 25.0 °F 28.9 °F 82% 29.55 in 5.0 mi SSW 12.7 mph 25.3 mph 0.00 in Snow Light Snow
11:52 AM 35.1 °F 26.4 °F 27.0 °F 72% 29.54 in 10.0 mi SW 12.7 mph 19.6 mph 0.00 in   Overcast
12:21 PM 33.1 °F 24.4 °F 25.0 °F 72% 29.52 in 10.0 mi West 11.5 mph 26.5 mph N/A   Overcast
12:52 PM 30.0 °F 21.1 °F 23.0 °F 75% 29.60 in 8.0 mi West 10.4 mph 21.9 mph N/A   Overcast
1:10 PM 30.0 °F 20.5 °F 21.9 °F 72% 29.54 in 9.0 mi WNW 11.5 mph 19.6 mph N/A   Overcast
1:52 PM 28.9 °F 19.8 °F 21.9 °F 75% 29.62 in 4.0 mi West 10.4 mph 17.3 mph 0.00 in Snow Light Snow
2:52 PM 24.1 °F 9.8 °F 8.1 °F 51% 29.68 in 10.0 mi West 19.6 mph 31.1 mph 0.00 in   Overcast
3:52 PM 21.9 °F 8.2 °F -2.0 °F 35% 29.73 in 10.0 mi West 16.1 mph 25.3 mph N/A   Overcast
4:52 PM 21.0 °F 10.6 °F -2.9 °F 35% 29.78 in 10.0 mi West 9.2 mph 19.6 mph N/A   Clear
5:52 PM 19.9 °F 11.1 °F -4.0 °F 35% 29.81 in 10.0 mi Variable 6.9 mph - N/A   Clear
6:52 PM 19.0 °F 8.2 °F -2.9 °F 38% 29.85 in 10.0 mi West 9.2 mph - N/A   Clear
7:52 PM 17.1 °F 7.6 °F -0.9 °F 45% 29.89 in 10.0 mi Variable 6.9 mph - N/A   Clear
8:52 PM 17.1 °F 8.7 °F 3.9 °F 56% 29.91 in 10.0 mi WNW 5.8 mph - N/A   Mostly Cloudy
9:09 PM 15.1 °F 5.2 °F 6.1 °F 68% 29.86 in 5.0 mi Variable 6.9 mph - 0.00 in Snow Light Snow
9:20 PM 15.1 °F 3.3 °F 5.0 °F 64% 29.86 in 8.0 mi WNW 9.2 mph - 0.00 in   Scattered Clouds
9:52 PM 15.1 °F 3.3 °F 3.0 °F 59% 29.94 in 10.0 mi West 9.2 mph - 0.00 in   Scattered Clouds
10:04 PM 15.1 °F 2.5 °F 3.9 °F 61% 29.88 in 10.0 mi West 10.4 mph - N/A   Mostly Cloudy
10:11 PM 15.1 °F 7.7 °F 3.0 °F 59% 29.88 in 10.0 mi Variable 4.6 mph - N/A   Scattered Clouds
10:52 PM 14.0 °F 1.2 °F -0.9 °F 52% 29.95 in 10.0 mi West 10.4 mph - N/A   Clear
11:52 PM 12.9 °F 1.6 °F -2.0 °F 51% 29.98 in 10.0 mi West 8.1 mph - N/A   Clear